Wind_Speed
8 8 9 9 8 9 10 11 11 12 12 13 14 15 15 15 15 15 16 16 18 16 15 14 15 14 14 16 14 13 12 11 11
8 9 10 11 11 11 12 13 13 13 14 14 15 15 15 15 15 15 15 15 17 18 19 18 18 18 18 16 18 16 16 14 13
10 10 11 12 13 13 14 15 15 15 15 16 16 16 15 14 14 14 14 15 13 13 16 18 20 22 21 21 19 19 17 17 15
10 11 11 12 13 14 14 15 15 15 16 16 16 16 15 12 12 12 10 12 11 9 9 14 15 16 21 22 20 17 18 18 16
10 11 12 13 14 15 15 16 16 16 16 16 16 15 14 12 11 9 10 11 10 8 7 12 9 9 10 16 20 18 17 18 15
12 13 13 14 16 16 16 16 16 16 15 15 16 14 12 11 11 9 10 8 8 9 8 10 11 12 11 11 10 11 11 13 18
13 14 15 15 16 16 17 17 17 17 16 15 15 13 12 10 10 8 10 8 7 6 7 8 10 11 12 13 13 13 14 15 17
13 14 14 15 16 16 17 18 18 17 16 14 12 12 11 9 9 10 10 9 8 7 7 8 9 9 10 14 15 16 17 17 17
12 14 15 15 16 17 18 18 18 17 16 14 11 11 10 10 9 9 10 10 9 7 7 6 6 5 9 13 12 9 9 10 10
12 14 15 16 18 18 18 18 17 16 14 14 12 10 9 9 8 7 11 11 10 8 9 7 5 6 7 6 6 6 5 5 7
12 14 15 16 17 18 18 18 17 16 14 13 10 8 8 8 9 9 9 12 11 8 5 7 10 8 5 5 5 4 5 8 12
11 13 15 16 17 17 17 17 16 14 12 10 9 7 7 9 9 10 10 10 12 10 10 8 11 14 14 13 8 5 7 11 11
12 14 15 16 16 16 16 16 15 13 10 7 6 6 6 7 8 9 9 10 8 8 6 4 3 4 6 8 11 10 12 12 9
12 14 15 16 16 15 15 15 15 13 9 6 5 4 4 6 6 7 8 9 8 6 6 5 5 6 8 8 10 11 12 9 9
12 14 15 15 14 14 14 13 13 12 10 5 5 5 5 5 5 6 7 7 6 5 5 6 7 6 7 7 8 10 13 13 12
12 14 14 13 12 12 12 12 13 11 11 7 6 5 6 7 8 7 6 6 5 5 4 5 5 9 12 8 8 10 12 13 13
13 13 12 12 11 11 11 11 11 10 12 7 5 3 4 4 9 6 5 7 6 6 6 7 6 10 11 14 10 12 14 18 16
13 11 10 10 10 9 9 10 10 9 10 10 5 4 3 9 5 6 6 7 7 7 7 9 9 9 10 11 14 15 18 21 21
12 10 10 10 10 9 9 9 9 9 8 8 8 6 4 5 5 6 7 8 9 8 7 8 11 10 10 12 15 18 21 20 17
11 11 11 10 10 10 9 10 10 10 9 8 7 6 5 4 5 10 9 11 8 8 8 7 9 9 10 14 18 20 23 20 16
Wind_Direction
352 348 344 340 338 333 329 325 321 316 310 306 301 298 298 298 294 287 278 274 269 277 272 275 272 270 272 268 275 271 262 259 262
356 354 349 342 338 336 335 330 327 323 319 314 309 306 302 296 293 292 291 285 276 269 270 273 270 269 268 273 269 268 268 268 265
356 351 354 349 345 343 342 336 334 330 328 324 321 319 315 311 303 294 290 286 286 276 269 268 270 267 269 272 281 268 267 264 265
1 359 358 354 348 346 345 341 338 339 338 335 336 334 333 328 315 308 301 290 286 291 304 290 284 286 272 270 277 282 274 269 266
6 5 0 359 354 353 351 347 346 349 347 345 344 344 345 344 337 328 303 295 283 280 302 300 293 288 285 276 281 285 282 273 269
6 5 4 3 0 357 355 355 358 356 353 352 353 354 356 354 348 344 327 315 297 286 278 295 286 285 295 296 291 283 278 280 264
6 8 8 7 3 2 0 2 2 2 360 356 359 1 359 358 358 348 345 343 332 319 282 277 292 288 290 289 286 287 288 286 286
9 10 10 9 6 6 6 6 2 2 2 0 359 1 4 7 5 358 358 357 352 344 323 298 288 296 307 292 296 297 294 293 292
10 11 9 10 7 8 9 7 5 3 4 5 5 10 14 18 18 3 7 8 7 13 15 3 352 318 295 310 315 317 319 317 316
8 9 8 9 8 7 8 8 7 7 6 7 7 12 19 27 29 20 20 21 22 36 36 30 359 330 343 349 350 348 14 8 348
8 7 7 6 6 7 8 8 8 8 12 15 19 27 31 36 36 31 20 27 28 37 57 34 40 29 28 5 35 31 21 9 325
2 4 3 3 4 5 6 7 9 10 13 16 21 32 39 36 30 30 33 27 30 50 72 77 72 62 59 56 41 3 349 351 323
357 358 357 357 359 1 4 6 10 10 13 16 17 27 30 29 23 26 29 34 42 36 51 31 5 13 29 26 27 342 336 317 297
349 349 349 350 350 354 1 4 7 8 6 2 1 5 10 7 16 18 17 23 33 42 25 10 347 330 326 343 9 8 3 354 335
339 342 341 342 346 351 358 1 4 6 1 351 336 322 331 343 351 358 356 2 7 11 9 19 353 343 331 326 338 351 15 6 1
332 334 333 339 342 345 351 358 1 5 8 356 307 300 307 316 323 322 336 343 339 329 346 356 0 348 342 331 335 353 2 11 0
323 325 330 336 338 339 343 351 1 358 8 7 340 304 299 334 320 324 333 335 328 314 301 304 321 327 343 352 5 355 351 349 347
313 321 326 328 329 328 330 337 349 357 355 9 19 332 324 330 314 314 320 330 337 315 299 292 295 304 314 331 333 336 339 339 337
307 313 315 318 320 318 319 325 331 342 340 349 351 351 326 334 331 331 326 335 313 313 311 291 283 288 301 315 320 324 331 335 339
299 304 309 309 309 310 311 315 318 320 327 329 331 329 324 306 307 308 321 329 335 315 313 279 282 288 299 307 311 325 331 332 340
Height
1561 1560 1559 1557 1555 1553 1552 1550 1548 1546 1545 1543 1541 1539 1538 1537 1535 1535 1534 1533 1532 1532 1531 1531 1531 1530 1529 1529 1529 1528 1527 1527 1527
1560 1559 1557 1556 1554 1552 1550 1548 1546 1544 1542 1540 1538 1537 1535 1534 1533 1531 1530 1529 1528 1528 1528 1528 1528 1527 1527 1526 1526 1526 1525 1525 1525
1559 1558 1556 1555 1553 1551 1548 1546 1544 1542 1539 1537 1535 1534 1532 1531 1529 1528 1527 1525 1525 1525 1525 1524 1524 1524 1524 1524 1523 1522 1522 1523 1522
1559 1557 1556 1554 1552 1550 1547 1545 1543 1540 1537 1535 1533 1531 1529 1528 1527 1526 1525 1523 1523 1523 1523 1521 1521 1521 1520 1520 1520 1519 1519 1519 1519
1558 1556 1555 1553 1551 1549 1546 1544 1541 1538 1536 1534 1531 1529 1528 1526 1525 1524 1522 1521 1520 1520 1521 1520 1519 1518 1518 1517 1517 1517 1517 1516 1516
1558 1556 1554 1551 1549 1547 1545 1542 1539 1537 1535 1532 1530 1528 1527 1526 1524 1523 1520 1519 1519 1519 1519 1518 1518 1517 1516 1515 1515 1515 1514 1514 1514
1557 1555 1553 1551 1548 1546 1543 1540 1538 1536 1534 1532 1530 1528 1527 1525 1524 1522 1520 1518 1517 1517 1517 1517 1516 1515 1515 1514 1513 1513 1513 1512 1512
1557 1555 1553 1550 1548 1546 1543 1540 1538 1536 1534 1531 1530 1528 1526 1525 1524 1522 1520 1518 1517 1516 1515 1515 1514 1514 1514 1512 1512 1511 1510 1509 1508
1557 1555 1552 1550 1548 1545 1543 1540 1538 1535 1533 1531 1529 1527 1526 1525 1524 1522 1520 1518 1516 1515 1515 1514 1514 1513 1512 1512 1510 1509 1508 1507 1506
1557 1554 1552 1549 1547 1545 1543 1540 1537 1535 1533 1530 1528 1527 1526 1525 1524 1524 1521 1519 1517 1516 1516 1515 1513 1513 1511 1511 1510 1509 1508 1507 1506
1556 1554 1552 1550 1547 1545 1542 1540 1537 1535 1533 1531 1529 1528 1527 1526 1525 1523 1522 1520 1518 1516 1516 1515 1514 1513 1512 1511 1510 1510 1508 1507 1506
1556 1554 1552 1550 1547 1545 1542 1540 1537 1535 1533 1532 1530 1529 1528 1527 1525 1524 1522 1521 1519 1518 1517 1516 1515 1515 1514 1512 1511 1510 1509 1507 1506
1555 1553 1551 1549 1547 1545 1542 1540 1538 1535 1534 1532 1531 1529 1528 1527 1526 1525 1524 1522 1521 1519 1518 1517 1516 1515 1514 1513 1512 1510 1508 1507 1505
1554 1553 1551 1548 1546 1544 1542 1540 1538 1536 1534 1533 1531 1530 1528 1527 1526 1526 1525 1523 1522 1521 1519 1518 1517 1515 1514 1512 1512 1510 1508 1506 1504
1553 1551 1550 1548 1546 1544 1542 1540 1538 1536 1534 1533 1531 1530 1528 1527 1526 1525 1524 1523 1523 1522 1521 1519 1517 1516 1514 1512 1511 1509 1508 1507 1505
1552 1550 1548 1546 1545 1543 1542 1540 1538 1537 1534 1533 1532 1530 1528 1527 1525 1524 1523 1523 1522 1522 1521 1520 1519 1517 1514 1512 1510 1509 1508 1507 1505
1550 1548 1547 1545 1544 1542 1541 1539 1538 1536 1534 1533 1531 1532 1530 1527 1524 1524 1523 1522 1521 1521 1520 1519 1518 1516 1515 1512 1511 1510 1508 1506 1504
1548 1547 1545 1544 1543 1541 1540 1539 1537 1536 1534 1533 1533 1532 1530 1527 1524 1523 1522 1521 1521 1520 1519 1517 1517 1516 1514 1512 1511 1509 1507 1504 1501
1545 1544 1543 1542 1541 1540 1539 1537 1536 1535 1534 1532 1531 1530 1530 1530 1527 1525 1522 1521 1519 1518 1518 1516 1515 1514 1513 1511 1509 1507 1505 1501 1499
1543 1542 1541 1540 1539 1538 1537 1536 1535 1534 1533 1532 1531 1529 1528 1528 1528 1525 1524 1522 1519 1518 1516 1513 1513 1512 1512 1510 1507 1505 1503 1500 1496